KE9DBJ Weather Reports


time (UTC)temp
C
wind
direction
speed
KPH
gust
KPH
rain 1hr
cm
rain 24hr
cm
rain mn
cm
humidity
%
barometer
mb
20260503195528 20 344 8.0 12.9 0.00 0.00 0.00 35 1015.3
20260503194532 20 308 4.8 11.3 0.00 0.00 0.00 35 1015.5
20260503193519 20 300 8.0 11.3 0.00 0.00 0.00 34 1015.9
20260503192523 20 300 6.4 11.3 0.00 0.00 0.00 33 1016.1
20260503191527 20 280 6.4 12.9 0.00 0.00 0.00 36 1016.3
20260503190531 19 186 6.4 11.3 0.00 0.00 0.00 34 1016.5
20260503185518 19 324 6.4 11.3 0.00 0.00 0.00 34 1016.7
20260503184522 18 34 8.0 11.3 0.00 0.00 0.00 34 1016.8
20260503183526 19 14 6.4 8.0 0.00 0.00 0.00 34 1017.0
20260503182531 19 318 6.4 11.3 0.00 0.00 0.00 33 1017.0
20260503181517 20 304 4.8 9.7 0.00 0.00 0.00 36 1017.1
20260503180521 18 352 6.4 9.7 0.00 0.00 0.00 32 1017.2
20260503175546 18 133 4.8 6.4 0.00 0.00 0.00 34 1017.4
20260503174530 18 80 6.4 11.3 0.00 0.00 0.00 35 1017.5
20260503173516 18 325 6.4 9.7 0.00 0.00 0.00 34 1017.7
20260503172540 18 306 8.0 14.5 0.00 0.00 0.00 32 1018.0
20260503171525 18 295 8.0 11.3 0.00 0.00 0.00 35 1018.1
20260503170529 18 304 6.4 9.7 0.00 0.00 0.00 36 1018.3
20260503150521 16 323 6.4 9.7 0.00 0.00 0.00 42 1019.5
20260503130525 4 43 1.6 3.2 0.00 0.00 0.00 99 1019.9
20260503110522 -1 0.0 0.0 0.00 0.00 0.00 99 1019.4
20260503081524 0 0.0 0.0 0.00 0.00 0.00 99 1018.8
20260503080548 0 0.0 0.0 0.00 0.00 0.00 99 1018.7
20260503072547 0 0.0 0.0 0.00 0.00 0.00 99 1018.6
20260503071532 0 0.0 0.0 0.00 0.00 0.00 99 1018.7
20260503070518 0 0.0 0.0 0.00 0.00 0.00 99 1018.7
20260503054516 0 0.0 0.0 0.00 0.00 0.00 99 1019.1
20260503053521 0 0.0 0.0 0.00 0.00 0.00 99 1019.1
20260503052525 0 0.0 0.0 0.00 0.00 0.00 99 1019.1
20260503051529 0 0.0 0.0 0.00 0.00 0.00 99 1019.1
20260503050515 1 0.0 0.0 0.00 0.00 0.00 99 1019.0
20260503045520 1 180 1.6 3.2 0.00 0.00 0.00 99 1018.9
20260503044524 1 0.0 0.0 0.00 0.00 0.00 99 1019.0
20260503043529 1 0.0 0.0 0.00 0.00 0.00 99 1019.0
20260503042515 1 0.0 0.0 0.00 0.00 0.00 99 1019.0
20260503041520 1 0.0 0.0 0.00 0.00 0.00 99 1019.1
20260503040523 1 0.0 0.0 0.00 0.00 0.00 99 1019.1
20260503035528 1 0.0 0.0 0.00 0.00 0.00 98 1019.1
20260503034526 1 0.0 0.0 0.00 0.00 0.00 97 1019.2
20260503033518 1 0.0 0.0 0.00 0.00 0.00 96 1019.1
20260503032524 2 0.0 0.0 0.00 0.00 0.00 95 1019.1
20260503031521 2 0.0 0.0 0.00 0.00 0.00 94 1019.1
20260503030540 2 0.0 0.0 0.00 0.00 0.00 92 1019.0
20260503025518 2 0.0 0.0 0.00 0.00 0.00 91 1018.9
20260503024516 3 0.0 0.0 0.00 0.00 0.00 89 1018.9
20260503023527 3 180 1.6 3.2 0.00 0.00 0.00 86 1018.8
20260503022531 3 180 1.6 3.2 0.00 0.00 0.00 83 1018.6
20260503021517 3 180 0.0 3.2 0.00 0.00 0.00 80 1018.5
20260503020521 4 0.0 0.0 0.00 0.00 0.00 76 1018.4
20260503015526 4 0.0 0.0 0.00 0.00 0.00 73 1018.3
20260503014530 5 243 1.6 3.2 0.00 0.00 0.00 71 1018.1
20260503013517 5 180 1.6 3.2 0.00 0.00 0.00 69 1018.0
20260503012521 6 177 1.6 3.2 0.00 0.00 0.00 65 1017.9
20260503011525 6 180 0.0 3.2 0.00 0.00 0.00 64 1017.7
20260503010529 7 195 1.6 4.8 0.00 0.00 0.00 53 1017.6
20260503005515 7 187 1.6 3.2 0.00 0.00 0.00 54 1017.6
20260503004520 8 189 1.6 3.2 0.00 0.00 0.00 49 1017.6
20260503003525 8 166 3.2 4.8 0.00 0.00 0.00 49 1017.3
20260503002529 10 78 3.2 4.8 0.00 0.00 0.00 43 1017.3
20260503001515 10 310 4.8 8.0 0.00 0.00 0.00 41 1017.2
20260503000539 10 72 4.8 6.4 0.00 0.00 0.00 42 1017.1
20260502235543 11 332 6.4 11.3 0.00 0.00 0.00 40 1017.1
20260502234528 12 309 6.4 14.5 0.00 0.00 0.00 38 1016.9
20260502233532 12 329 8.0 16.1 0.00 0.00 0.00 36 1016.9
20260502232518 13 316 6.4 8.0 0.00 0.00 0.00 36 1016.9
20260502231523 12 349 4.8 9.7 0.00 0.00 0.00 36 1016.9
20260502230527 12 8 8.0 11.3 0.00 0.00 0.00 38 1016.9
20260502225532 12 21 9.7 12.9 0.00 0.00 0.00 37 1016.7
20260502224517 12 22 8.0 9.7 0.00 0.00 0.00 37 1016.8
20260502223522 12 360 6.4 6.4 0.00 0.00 0.00 36 1016.8
20260502222608 13 357 8.0 12.9 0.00 0.00 0.00 36 1016.7
20260502221531 12 178 4.8 9.7 0.00 0.00 0.00 36 1016.7
20260502220537 13 342 4.8 9.7 0.00 0.00 0.00 36 1016.7
20260502215521 13 58 9.7 14.5 0.00 0.00 0.00 36 1016.5
20260502214607 13 342 6.4 8.0 0.00 0.00 0.00 35 1016.5
20260502213524 12 330 6.4 11.3 0.00 0.00 0.00 35 1016.6
20260502212516 13 345 6.4 11.3 0.00 0.00 0.00 36 1016.5
20260502211520 13 309 4.8 12.9 0.00 0.00 0.00 34 1016.5
20260502210519 13 234 6.4 9.7 0.00 0.00 0.00 34 1016.5
20260502205517 13 289 8.0 17.7 0.00 0.00 0.00 35 1016.5
20260502204515 13 1 8.0 14.5 0.00 0.00 0.00 34 1016.6
20260502203519 13 8 9.7 11.3 0.00 0.00 0.00 35 1016.7
20260502202524 12 252 9.7 14.5 0.00 0.00 0.00 35 1016.8
20260502201528 13 327 12.9 20.9 0.00 0.00 0.00 32 1016.8
20260502200532 15 318 6.4 12.9 0.00 0.00 0.00 33 1016.8